Wind_Speed
18 17 16 15 14 13 12 12 11 10 10 10 10 11 11 12 14 15 16 17 18 18 19 20 20 20 21 21 22 22 23 25 27 29 30 32 34 35 37 40 42 44
20 19 18 17 16 15 15 14 13 12 11 12 13 13 14 14 15 17 18 19 20 20 21 22 22 22 23 23 24 24 24 26 28 30 32 33 35 36 38 40 42 45
22 21 20 19 19 18 17 17 15 14 13 14 15 16 16 16 17 18 20 21 21 22 22 23 24 24 24 25 25 25 26 27 28 30 32 35 37 38 39 41 43 45
24 23 22 21 21 20 20 19 18 16 16 16 16 18 18 19 19 19 21 22 22 22 23 24 25 26 26 27 27 27 27 28 29 31 33 36 38 40 41 43 44 46
25 25 24 23 22 22 22 21 20 19 19 19 19 20 20 21 21 21 21 22 22 22 23 25 27 28 28 29 29 29 29 29 29 32 34 37 39 41 43 44 46 48
25 25 25 25 24 24 24 23 22 22 22 22 22 23 23 22 22 22 23 23 23 23 24 26 28 30 30 31 31 31 31 30 30 33 35 37 39 41 43 44 47 49
27 27 27 27 27 26 26 25 25 25 25 25 26 25 25 24 23 24 25 25 25 24 25 27 29 31 32 32 32 32 32 31 32 34 36 38 40 42 43 44 47 49
29 29 29 29 29 29 29 28 27 27 27 28 29 28 27 26 25 25 26 27 27 26 26 28 30 33 33 33 33 34 34 34 34 35 37 39 42 44 44 44 47 50
32 31 31 31 31 31 31 30 29 29 29 30 31 30 28 28 27 27 28 29 29 29 28 29 32 34 34 34 34 35 36 36 37 37 38 40 43 45 46 45 47 49
34 33 33 33 33 33 33 32 32 32 31 32 32 31 30 30 29 29 30 31 31 31 31 32 34 36 36 36 36 37 38 38 39 39 40 41 43 46 47 46 47 49
36 36 36 35 35 35 35 34 34 34 33 33 33 33 33 32 31 31 32 33 33 33 33 34 36 37 38 38 39 40 40 41 41 41 41 42 44 47 48 47 48 49
38 37 37 37 37 36 36 36 35 35 34 34 34 34 35 34 34 34 34 35 36 36 36 36 37 39 40 40 41 42 42 43 43 43 43 43 45 48 49 49 49 50
40 39 38 38 37 37 37 37 37 36 36 35 36 36 37 36 36 36 36 37 38 39 38 38 39 40 41 42 43 44 44 44 45 45 45 45 46 49 51 51 51 51
41 40 39 39 38 38 38 39 38 38 38 38 38 39 39 38 38 38 38 39 41 41 40 40 41 42 43 44 45 46 46 46 47 47 47 47 48 50 53 53 52 52
42 41 41 40 40 40 40 40 41 41 41 41 41 41 41 41 41 41 41 41 42 43 43 43 44 45 45 45 47 48 48 48 49 49 49 50 51 53 54 55 54 53
44 43 43 43 43 43 43 44 44 44 44 45 45 44 44 43 43 43 43 43 44 45 45 45 46 47 47 47 48 50 50 50 51 51 52 53 53 55 56 56 56 55
47 46 46 46 47 47 47 47 47 47 48 48 48 48 46 45 45 45 45 45 46 47 48 49 49 50 50 50 51 52 52 52 53 53 55 56 56 57 59 59 58 57
51 50 50 49 50 50 50 50 50 50 51 52 51 50 49 48 47 47 47 47 48 50 51 52 52 53 53 53 53 54 54 54 55 56 57 59 59 60 61 61 59 59
54 54 53 53 53 53 53 52 52 53 54 54 54 53 51 50 50 49 49 50 51 52 53 54 55 55 56 56 56 56 56 56 57 58 60 62 62 63 64 63 60 60
56 56 57 56 56 55 55 54 55 56 56 56 56 55 53 52 52 51 51 52 53 54 55 56 58 58 58 58 59 59 59 58 59 60 62 64 65 65 66 65 62 61
59 59 60 59 59 58 57 56 57 58 58 58 58 56 55 55 54 53 54 54 55 56 57 59 60 61 61 61 61 62 61 60 61 63 65 67 67 66 67 66 64 62
62 63 63 63 62 61 60 59 60 60 61 61 59 58 57 57 57 57 57 57 57 58 59 62 63 64 64 64 64 65 64 62 63 64 66 68 69 68 68 67 64 62
66 66 67 66 66 66 65 64 64 63 63 63 62 61 60 60 60 61 60 60 61 61 63 65 66 67 67 67 68 68 67 66 65 66 68 69 70 71 70 67 64 62
69 70 70 70 69 70 70 69 68 67 66 65 65 65 64 64 64 64 64 64 64 65 67 69 69 70 70 71 71 71 70 69 68 68 70 70 71 72 71 67 64 63
67 70 71 72 72 73 73 73 72 70 69 69 68 69 69 68 67 66 67 69 69 69 71 72 71 72 73 74 74 73 73 71 71 70 71 72 72 73 71 68 65 63
62 64 66 68 70 71 72 73 73 72 72 72 71 72 72 72 71 70 71 72 73 73 74 74 73 74 75 76 76 75 73 73 72 72 72 72 72 72 70 68 65 62
Wind_Direction
233 234 236 241 247 253 258 264 269 277 287 295 301 306 312 317 321 323 327 333 337 338 336 335 335 336 337 337 337 337 339 340 343 345 347 347 348 349 349 350 351 351
236 238 239 241 245 249 254 258 262 268 276 284 291 297 302 309 313 315 318 321 326 330 331 330 330 331 332 332 332 333 334 335 338 341 344 345 346 347 347 347 348 349
240 242 242 244 246 249 253 257 260 264 270 277 285 292 297 303 306 309 311 313 316 321 324 325 325 326 328 328 329 329 329 331 334 338 341 343 344 345 345 344 345 346
243 245 245 246 249 252 255 258 261 265 269 275 282 288 293 297 300 302 305 306 309 314 318 319 320 321 323 325 326 326 325 326 330 335 339 340 341 343 344 343 342 343
243 246 248 249 250 253 255 259 263 267 270 274 280 285 288 292 295 297 299 300 304 309 313 315 315 317 318 321 323 324 323 322 326 332 336 338 339 341 343 343 341 341
244 247 249 251 253 254 257 261 264 268 272 275 279 282 285 288 291 293 295 297 301 306 309 310 311 312 314 317 320 322 322 320 322 327 332 336 337 338 340 342 341 341
247 249 251 253 255 257 260 264 266 270 273 276 278 279 282 284 287 291 293 296 299 302 305 307 308 309 310 313 317 320 321 320 320 323 328 332 334 335 337 339 340 341
251 253 254 256 259 261 263 266 268 270 272 275 276 278 279 282 286 290 293 295 297 299 302 304 305 306 308 311 313 316 318 319 319 321 325 329 331 332 333 336 339 341
254 255 257 259 261 263 265 267 269 270 271 273 275 277 278 281 286 289 291 294 296 298 300 302 302 303 306 309 311 313 315 317 319 320 322 326 328 330 331 333 336 339
256 258 259 261 263 264 266 268 269 271 271 273 275 277 279 282 286 288 290 292 294 297 298 299 300 301 304 307 309 311 313 315 318 320 321 322 325 327 328 330 334 336
257 259 260 262 264 265 267 268 269 270 271 272 274 277 280 282 285 287 289 291 293 295 296 297 298 300 302 305 308 310 311 313 316 319 321 321 322 324 325 327 331 333
257 259 260 262 263 265 267 268 269 270 271 272 274 276 279 281 284 287 289 291 292 293 294 296 298 299 301 304 305 307 309 311 313 317 319 319 320 321 321 325 329 330
258 259 260 261 263 265 266 267 268 269 270 272 273 275 278 281 284 287 288 290 290 291 293 296 297 299 300 302 304 305 307 308 311 314 317 317 318 317 318 323 327 328
258 259 260 262 263 264 265 266 268 269 270 272 274 276 278 281 283 285 286 288 289 290 292 294 296 297 299 301 302 303 305 306 309 312 314 314 315 314 316 321 325 325
259 260 261 262 263 264 265 266 267 269 271 273 274 276 278 280 282 284 285 286 288 290 291 293 294 295 297 299 300 301 303 305 307 310 312 312 312 312 315 319 322 323
261 262 262 263 264 265 266 268 269 270 271 273 274 276 277 280 282 283 284 286 287 289 290 291 292 293 295 297 299 300 302 304 306 308 310 310 310 311 314 317 320 321
262 262 264 264 266 267 268 269 270 272 273 274 274 276 277 279 281 283 284 286 287 288 289 290 291 292 294 296 297 299 301 303 305 306 308 308 309 311 313 315 318 319
262 262 263 264 265 266 268 269 271 272 273 274 275 276 278 280 281 283 285 286 287 288 289 290 291 292 294 295 297 298 300 302 303 305 306 306 308 310 311 313 316 317
262 263 264 264 265 266 267 269 270 272 273 274 276 277 279 280 282 283 285 286 287 288 289 290 291 292 293 295 296 297 299 301 302 304 304 305 307 309 309 311 314 315
263 263 264 264 265 266 267 268 270 271 272 274 275 277 279 280 281 283 284 285 286 287 288 290 290 291 292 294 295 296 297 299 301 302 302 304 305 307 307 309 312 313
262 263 264 264 265 265 267 268 269 271 272 273 274 276 278 279 280 281 282 283 284 286 287 288 288 289 291 292 293 294 295 298 299 300 301 302 304 305 305 306 309 311
262 263 264 265 266 266 267 268 269 270 271 273 274 276 277 278 279 280 280 281 283 284 285 285 286 287 288 289 290 292 294 296 298 299 300 301 302 303 303 304 307 309
263 264 265 266 267 268 268 268 268 269 271 273 275 276 277 277 278 278 279 280 281 282 283 283 284 285 286 288 289 291 293 295 297 298 299 299 300 300 301 302 305 307
265 266 266 266 267 268 268 268 269 269 270 272 273 274 275 275 276 278 279 279 280 280 281 281 282 284 286 288 289 291 292 294 296 297 298 297 297 298 299 301 304 306
266 267 268 268 268 269 269 270 271 271 271 272 272 273 274 274 275 276 277 278 279 279 280 281 283 285 286 287 288 290 291 293 295 296 295 294 295 296 298 300 303 304
266 267 268 269 270 270 271 271 272 272 272 273 273 273 274 275 276 276 277 278 279 279 280 281 283 284 284 286 287 289 291 293 294 293 292 292 294 295 296 299 301 302
Height
10981 10981 10982 10982 10982 10983 10983 10984 10984 10984 10984 10984 10984 10984 10984 10984 10983 10983 10983 10982 10981 10980 10979 10978 10977 10976 10974 10973 10972 10971 10970 10969 10968 10966 10965 10963 10961 10959 10957 10955 10953 10950
10979 10979 10980 10980 10981 10981 10981 10981 10981 10982 10982 10982 10982 10982 10982 10982 10982 10981 10981 10980 10980 10979 10978 10976 10975 10974 10973 10972 10971 10970 10969 10968 10966 10965 10964 10962 10960 10959 10956 10954 10951 10948
10976 10977 10978 10978 10978 10979 10979 10979 10979 10980 10980 10980 10980 10980 10980 10980 10980 10979 10979 10978 10977 10977 10976 10975 10973 10972 10971 10970 10969 10969 10968 10966 10965 10964 10962 10961 10959 10957 10955 10952 10949 10946
10974 10975 10975 10976 10976 10976 10976 10976 10977 10977 10978 10978 10978 10977 10977 10977 10977 10977 10977 10976 10975 10974 10974 10973 10971 10970 10969 10968 10968 10967 10966 10965 10964 10962 10961 10959 10957 10955 10953 10950 10947 10944
10971 10972 10973 10973 10974 10974 10974 10974 10975 10975 10975 10976 10975 10975 10975 10975 10975 10974 10974 10973 10973 10972 10971 10970 10969 10967 10967 10966 10965 10965 10964 10963 10962 10960 10959 10958 10956 10953 10951 10948 10945 10942
10969 10969 10970 10970 10971 10971 10971 10972 10973 10973 10973 10973 10973 10973 10972 10972 10972 10972 10971 10971 10970 10970 10969 10967 10966 10964 10964 10963 10963 10962 10962 10961 10959 10958 10957 10955 10953 10951 10949 10946 10943 10940
10966 10966 10967 10967 10968 10968 10969 10970 10970 10970 10971 10971 10970 10970 10970 10970 10969 10969 10968 10968 10967 10967 10966 10965 10963 10961 10961 10960 10960 10959 10959 10958 10957 10956 10954 10953 10951 10948 10946 10944 10941 10937
10962 10963 10963 10964 10965 10966 10966 10967 10968 10968 10968 10967 10967 10967 10967 10967 10966 10966 10965 10964 10964 10964 10963 10962 10960 10958 10958 10957 10957 10956 10956 10955 10954 10953 10952 10950 10947 10945 10942 10940 10938 10935
10958 10959 10960 10961 10961 10962 10963 10964 10965 10965 10965 10964 10963 10963 10963 10963 10963 10963 10962 10961 10961 10961 10960 10959 10957 10955 10954 10954 10954 10953 10952 10951 10951 10950 10949 10947 10944 10941 10938 10936 10934 10932
10954 10955 10956 10957 10958 10959 10959 10960 10961 10961 10961 10960 10960 10960 10960 10960 10960 10959 10959 10958 10957 10958 10957 10956 10954 10952 10951 10951 10950 10949 10948 10948 10947 10946 10945 10943 10941 10937 10934 10932 10930 10928
10951 10951 10952 10953 10954 10955 10955 10956 10957 10957 10957 10957 10956 10956 10956 10956 10956 10956 10955 10954 10954 10954 10953 10952 10951 10949 10948 10947 10947 10946 10945 10944 10943 10942 10941 10940 10937 10933 10930 10928 10927 10924
10947 10947 10948 10949 10950 10950 10951 10952 10953 10953 10953 10953 10953 10952 10952 10952 10952 10952 10951 10951 10950 10950 10949 10949 10947 10946 10945 10944 10943 10942 10941 10940 10939 10938 10937 10936 10933 10929 10926 10925 10924 10921
10942 10943 10944 10945 10946 10946 10947 10948 10949 10949 10949 10949 10949 10948 10948 10948 10949 10948 10948 10947 10946 10945 10945 10945 10944 10942 10941 10941 10939 10938 10937 10936 10935 10934 10933 10931 10929 10925 10922 10921 10921 10918
10938 10940 10940 10941 10941 10942 10942 10943 10944 10944 10945 10944 10944 10944 10944 10944 10945 10944 10944 10942 10941 10941 10941 10941 10939 10938 10938 10937 10936 10934 10933 10932 10931 10930 10929 10927 10924 10920 10917 10917 10917 10915
10934 10935 10936 10936 10937 10937 10938 10938 10939 10940 10940 10940 10940 10940 10940 10940 10940 10940 10939 10938 10937 10937 10936 10936 10935 10934 10934 10934 10932 10930 10929 10928 10927 10925 10924 10922 10919 10916 10913 10913 10913 10911
10929 10930 10931 10931 10932 10932 10933 10933 10934 10935 10935 10935 10935 10935 10936 10936 10935 10935 10935 10934 10933 10932 10932 10931 10930 10929 10929 10930 10928 10926 10925 10924 10922 10921 10919 10917 10914 10912 10909 10909 10909 10908
10923 10924 10925 10926 10926 10927 10928 10928 10929 10929 10929 10929 10929 10930 10931 10932 10931 10930 10930 10930 10929 10927 10927 10926 10925 10925 10925 10925 10923 10922 10920 10919 10917 10916 10914 10911 10909 10908 10905 10904 10905 10903
10917 10918 10919 10920 10920 10921 10922 10923 10924 10923 10922 10923 10923 10925 10926 10927 10926 10926 10926 10925 10924 10923 10922 10921 10920 10920 10919 10919 10918 10917 10916 10914 10912 10910 10908 10905 10904 10903 10900 10900 10900 10899
10910 10912 10912 10913 10914 10915 10916 10917 10918 10917 10917 10917 10918 10919 10921 10921 10921 10922 10921 10920 10919 10918 10917 10916 10915 10914 10914 10913 10913 10912 10911 10909 10907 10905 10902 10900 10899 10897 10895 10895 10895 10893
10905 10905 10905 10906 10908 10909 10911 10912 10912 10911 10911 10911 10912 10914 10916 10916 10916 10917 10917 10915 10914 10913 10912 10911 10909 10908 10908 10907 10907 10906 10905 10905 10902 10899 10896 10894 10893 10891 10889 10889 10890 10888
10898 10898 10898 10899 10901 10903 10905 10906 10907 10905 10905 10905 10907 10908 10910 10910 10911 10911 10911 10910 10909 10908 10907 10904 10902 10901 10901 10901 10900 10899 10900 10900 10898 10894 10890 10888 10886 10885 10883 10883 10883 10882
10890 10891 10891 10892 10894 10896 10899 10900 10900 10899 10898 10899 10901 10903 10903 10904 10904 10904 10903 10903 10903 10903 10900 10897 10895 10894 10895 10894 10893 10892 10893 10895 10893 10889 10885 10881 10879 10878 10876 10877 10877 10876
10884 10884 10885 10886 10887 10889 10891 10892 10892 10893 10893 10893 10894 10896 10897 10897 10896 10896 10896 10896 10896 10895 10893 10890 10888 10888 10888 10887 10886 10886 10887 10888 10887 10884 10879 10875 10872 10870 10869 10870 10870 10870
10877 10877 10877 10879 10881 10881 10881 10882 10884 10886 10888 10888 10888 10888 10889 10889 10889 10889 10889 10889 10888 10887 10885 10882 10881 10881 10881 10880 10879 10879 10880 10880 10880 10878 10873 10868 10865 10862 10861 10862 10863 10862
10870 10869 10869 10871 10872 10873 10873 10874 10875 10878 10879 10880 10881 10880 10880 10880 10882 10883 10882 10880 10879 10879 10877 10875 10875 10875 10874 10871 10870 10871 10872 10872 10872 10871 10866 10861 10857 10854 10853 10854 10854 10854
10862 10861 10861 10862 10863 10863 10864 10865 10866 10868 10869 10871 10872 10872 10871 10872 10873 10874 10874 10872 10870 10869 10868 10868 10868 10867 10866 10863 10861 10863 10864 10864 10863 10862 10858 10853 10850 10848 10846 10846 10846 10846